User: anonymous   Login
Location: *
(48.4333°N, 5.0333°W)
Time: 12:50:32
(UTC+00:00)
Language:

XW-2C - Orbit

View from above orbital plane
View from above orbital plane
View from above satellite
View from above satellite

Ground track
Ground track

The orbit data is extracted from the following two-line orbital elements,

1 40906U 15049H   21296.06958206  .00001738  00000-0  90923-4 0  9990
2 40906  97.4903 296.8841 0016069 102.5603 328.7346 15.17083612336919
Epoch (UTC): 23 October 2021 01:40:11
Eccentricity: 0.0016069
inclination: 97.4903°
perigee height: 503 km
apogee height: 526 km
right ascension of ascending node: 296.8841°
argument of perigee: 102.5603°
revolutions per day: 15.17083612
mean anomaly at epoch: 328.7346°
orbit number at epoch: 33691

The dashed part of the orbit path shows where the satellite is in the earth's shadow,  

DLR